User: anonymous   Login
Location: Lower Kingswood
(51.2667°N, 0.2167°W)
Time: 17:44:12
(UTC+00:00)
Language:

Cosmos 1461 - Orbit

View from above orbital plane
View from above orbital plane
View from above satellite
View from above satellite

Ground track
Ground track

The orbit data is extracted from the following two-line orbital elements,

1 14064U 83044A   24061.86111820  .00010550  00000-0  69586-3 0  9992
2 14064  64.9970 236.2013 0074515 164.1750 196.1726 15.05585484 89762
Epoch (UTC): 01 March 2024 20:40:00
Eccentricity: 0.0074515
inclination: 64.9970°
perigee height: 498 km
apogee height: 601 km
right ascension of ascending node: 236.2013°
argument of perigee: 164.1750°
revolutions per day: 15.05585484
mean anomaly at epoch: 196.1726°
orbit number at epoch: 8976

The dashed part of the orbit path shows where the satellite is in the earth's shadow,  

DLR